{"data":{"norad_id":61557,"epoch":"2026-09-22T20:26:48.460992Z","epoch_age_seconds":94243,"freshness":"FRESH","line1":"1 61557U 24185F   26265.85194978  .00000426  00000+0  17846-3 0  9996","line2":"2 61557  88.9839  44.0126 0011752  92.6137 267.6401 14.24159708110450","mean_motion":14.24159708,"eccentricity":0.0011752,"inclination_deg":88.9839,"raan_deg":44.0126,"arg_perigee_deg":92.6137,"mean_anomaly_deg":267.6401,"bstar":0.00017846,"rev_number":11045,"period_min":101.11225531175,"perigee_km":802.87019519423,"apogee_km":819.76829315054,"semimajor_km":7189.4562441724,"source":"CELESTRAK","updated_at":"2026-09-23T09:00:20.903990Z"}}